This is the latest recevied weather packets stored in our database for station/object KD8OZS. If no packets are shown the sender has not sent any weather packets the latest 10 day(s).
| Time | Temp. | Humidity | Pressure | Rain* | Wind** | Luminosity | Snow |
|---|---|---|---|---|---|---|---|
| 1787923070 | 18.33° C | 97% | 1013 hPa | 0 mm | - | 301 W/m² | - |
| 1787922765 | 18.33° C | 98% | 1013 hPa | 0 mm | - | 267 W/m² | - |
| 1787922463 | 17.78° C | 99% | 1012.8 hPa | 0 mm | - | 233 W/m² | - |
| 1787922163 | 17.22° C | 99% | 1012.9 hPa | 0 mm | - | 234 W/m² | - |
| 1787921860 | 17.78° C | 99% | 1012.6 hPa | 0 mm | - | 54 W/m² | - |
| 1787921550 | 17.22° C | 99% | 1012.6 hPa | 0 mm | - | 95 W/m² | - |
| 1787921244 | 17.22° C | 99% | 1012.6 hPa | 0 mm | - | 78 W/m² | - |
| 1787920940 | 17.22° C | 99% | 1012.8 hPa | 0 mm | - | 104 W/m² | - |
| 1787920635 | 16.67° C | 99% | 1012.6 hPa | 0 mm | - | 123 W/m² | - |
| 1787920329 | 16.67° C | 99% | 1012.5 hPa | 0 mm | - | 104 W/m² | - |
| 1787920027 | 16.11° C | 99% | 1012.4 hPa | 0 mm | - | 74 W/m² | - |
| 1787919727 | 16.11° C | 99% | 1012.5 hPa | 0 mm | - | 74 W/m² | - |
| 1787919421 | 15.56° C | 99% | 1012.4 hPa | 0 mm | - | 63 W/m² | - |
| 1787919117 | 15.56° C | 99% | 1012.4 hPa | 0 mm | - | 54 W/m² | - |
| 1787918816 | 15.56° C | 99% | 1012.3 hPa | 0 mm | - | 58 W/m² | - |
| 1787918512 | 15.56° C | 99% | 1012.4 hPa | 0 mm | - | 57 W/m² | - |
| 1787918210 | 15° C | 99% | 1012.2 hPa | 0 mm | - | 50 W/m² | - |
| 1787917909 | 15° C | 99% | 1012.2 hPa | 0 mm | - | 43 W/m² | - |
| 1787917605 | 15° C | 99% | 1012.1 hPa | 0 mm | - | 37 W/m² | - |
| 1787917302 | 14.44° C | 99% | 1012.2 hPa | 0 mm | - | 33 W/m² | - |
| 1787917001 | 14.44° C | 99% | 1012.1 hPa | 0 mm | - | 27 W/m² | - |
| 1787916696 | 13.89° C | 99% | 1011.9 hPa | 0 mm | - | 25 W/m² | - |
| 1787916390 | 13.89° C | 99% | 1011.7 hPa | 0 mm | - | 19 W/m² | - |
| 1787916085 | 13.89° C | 99% | 1011.9 hPa | 0 mm | - | 15 W/m² | - |
| 1787915780 | 13.89° C | 99% | 1011.7 hPa | 0 mm | - | 12 W/m² | - |
* Rain latest hour (hover to see other rain measurements)
** Current wind speed in m/s (hover to see current wind gust speed)